Other Surface Observations
Issued by NWS

Current Version | Previous Version | Text Only | Print | Product List | Glossary On
Versions: 1 2 3 4 5 6 7 8 9 10 11 12 13 14 15 16 17 18 19 20 21 22 23 24 25 26 27 28 29 30 31 32 33 34 35 36 37 38 39 40 41 42 43 44 45 46 47 48 49 50
000
SXUS52 KTAE 280218
OSOTAE
OSOTAE
North Florida/South Alabama/Southwest Georgia Weather Roundup
National Weather Service Tallahassee Florida
900 PM EST THU NOV 27 2014

Note: "fair" indicates few or no clouds below 12,000 feet with no
significant weather and/or obstructions to visibility.

!FLZ017-115-028-034-025-280300
...North Florida...

CITY           SKY/WX    TMP DP  RH WIND       PRES   REMARKS
TALLAHASSEE    CLEAR     47  33  58 NW5       30.36R WCI  45
APALACHICOLA   CLEAR     52  34  50 N8        30.36R
PERRY          CLEAR     45  36  69 N5        30.34S WCI  43
CROSS CITY       N/A     43  36  76 N5        30.32R WCI  40
JACKSONVILLE   CLEAR     44  36  73 NW6       30.31R WCI  41
$$

!FLZ112-006-005-002-011-280300
...Florida Panhandle...

CITY           SKY/WX    TMP DP  RH WIND       PRES   REMARKS
MARIANNA       HVY RAIN  45  34  65 N6        30.39R WCI  42
BONIFAY        FAIR      45  33  63 N6        30.41R WCI  42
PANAMA CITY NW FAIR      43  35  73 N5        30.39R WCI  40
TYNDALL AFB    CLEAR     49  36  59 N12G17    30.39R WCI  45
TYND DRONE APT NOT AVBL
DE FUNIAK SPR  FAIR      44  32  64 N6        30.40S WCI  40
EGLIN AFB      CLEAR     45  32  59 N9        30.41R WCI  40
DESTIN         CLEAR     49  34  56 N14       30.41R WCI  44
HURLBURT       CLEAR     44  29  55 N8        30.40R WCI  39
CRESTVIEW      CLEAR     45  32  60 N9        30.42R WCI  40
PENSACOLA      CLEAR     47  31  53 N9        30.42R WCI  43
$$

!ALZ063-066-280300
...South Alabama...

CITY           SKY/WX    TMP DP  RH WIND       PRES   REMARKS
DOTHAN         CLEAR     42  32  67 N5        30.42R WCI  39
OZARK CAIRNS   CLEAR     43  30  61 NW6       30.40R WCI  39
FT RUCKER HELI CLEAR     41  31  67 N5        30.39S WCI  38
RUCKER HELI 3  FAIR      42  32  70 NW5       30.42R WCI  39
RUCKER HELI 2  FAIR      41  31  67 N6        30.40R WCI  37
FLORALA APT    CLEAR     43  32  65 NW3       30.42S
ANDALUSIA      CLEAR     45  32  60 N7        30.42R WCI  41
TROY           CLEAR     40  30  67 N7        30.42R WCI  35
EUFALA         FAIR      41  30  65 NW3       30.39R
MOBILE         CLEAR     44  32  62 N9        30.44R WCI  39
$$

!GAZ120>161-280300
...Southwest and South Central Georgia...

CITY           SKY/WX    TMP DP  RH WIND       PRES   REMARKS
THOMASVILLE    FAIR      45  34  65 N6        30.36R WCI  41
BAINBRIDGE     CLEAR     48  36  61 NW8       30.38R WCI  45
MOODY AFB      CLEAR     43  33  70 N7        30.33R WCI  38
VALDOSTA       CLEAR     40  34  79 CALM      30.34R
MOULTRIE       CLEAR     45  36  70 CALM      30.36R
BLAKELY        CLEAR     45  34  65 CALM      30.40R
ALBANY         CLEAR     42  32  67 NW3       30.39R
TIFTON         FAIR      44  32  62 NW10      30.35R WCI  38
FITZGERALD     FAIR      45  29  52 NW9       30.37R WCI  41
CORDELE        FAIR      44  29  54 N5        30.38R WCI  42
AMERICUS       FAIR      41  32  70 N7        30.39R WCI  36
HOMERVILLE     FAIR      45  36  70 NW6       30.34R WCI  41
$$

!GMZ750-755-770-775-280300
...Coastal and Buoy Obs...

STATION/POSITION TIME  TEMP    WIND        PRES    VSBY  WAVE
                       AIR SEA DIR/SP/G                  HT/PER
                 (UTC) (F)     (DEG/KT/KT) (MB)    (MI)  (FT/S)
KEATON BEACH     0200   49     360/  6/  8 1027.4R
CEDAR KEY        0155   51     360/  7/ 10 1026.9R
C TOWER          0200   55     350/ 23/ 25 1026.8R
APALACHICOLA BUO 0200   61 70  360/ 17/ 21 1026.2R         5/ 8
PANAMA CITY BUOY 0133   62 75   10/ 21/ 25 1027.4R         6/ 7
MOBILE BUOY      0141   58 71   10/ 19/ 23 1030.2R         4/ 5
ORANGE BCH AL BU 0200   54 64  360/ 19/ 23 1029.1S         2/ 4
$$



USA.gov is the U.S. government's official web portal to all federal, state and local government web resources and services.